When you browse on this site, cookies collect data to enhance your experience and personalize the content and advertising you see.
Visit our Privacy Policy to learn more. By continuing to use the site, you agree to this use of cookies and data.
  • In Austria
  • List of Countries
  • For 7 days
  • Water Temperature
  • Weather Map
  • News
  • Weather Widgets
  • user-avatar
    Login

    Hourly Weather Ochistka

    Today, 3 June, Wednesday

    Time Temperature Precipitation Wind Pressure Humidity
    00:00 +9°C° 0.1 mm 3 mps 741 mmHg 89%
    01:00 +9°C° 0.1 mm 3 mps 741 mmHg 91%
    02:00 +8°C° 0.1 mm 3 mps 741 mmHg 94%
    03:00 +9°C° 0 mm 3 mps 741 mmHg 94%
    04:00 +9°C° 0 mm 3 mps 741 mmHg 95%
    05:00 +9°C° 0 mm 3 mps 740 mmHg 95%
    06:00 +9°C° 0 mm 3 mps 740 mmHg 94%
    07:00 +10°C° 0 mm 3 mps 741 mmHg 93%
    08:00 +10°C° 0 mm 3 mps 741 mmHg 92%
    09:00 +12°C° 0.1 mm 2 mps 740 mmHg 90%
    10:00 +13°C° 0.1 mm 2 mps 740 mmHg 88%
    11:00 +13°C° 0.1 mm 2 mps 740 mmHg 86%
    12:00 +14°C° 0.1 mm 2 mps 740 mmHg 83%
    13:00 +15°C° 0.1 mm 2 mps 740 mmHg 80%
    14:00 +16°C° 0.1 mm 2 mps 740 mmHg 78%
    15:00 +16°C° 0.1 mm 2 mps 740 mmHg 76%
    16:00 +16°C° 0.1 mm 2 mps 739 mmHg 74%
    17:00 +17°C° 0.1 mm 2 mps 739 mmHg 72%
    18:00 +15°C° 0.1 mm 2 mps 739 mmHg 79%
    19:00 +14°C° 0.1 mm 2 mps 739 mmHg 87%
    20:00 +12°C° 0.1 mm 2 mps 739 mmHg 95%
    21:00 +11°C° 0 mm 1 mps 739 mmHg 96%
    22:00 +11°C° 0 mm 1 mps 738 mmHg 96%
    23:00 +10°C° 0 mm 1 mps 738 mmHg 97%

    Tomorrow, 4 June, Thursday

    Time Temperature Precipitation Wind Pressure Humidity
    00:00 +9°C° 0 mm 1 mps 738 mmHg 97%
    01:00 +9°C° 0 mm 1 mps 738 mmHg 97%
    02:00 +9°C° 0 mm 1 mps 738 mmHg 97%
    03:00 +9°C° 0 mm 1 mps 738 mmHg 96%
    04:00 +10°C° 0 mm 1 mps 738 mmHg 95%
    05:00 +10°C° 0 mm 1 mps 737 mmHg 94%
    06:00 +12°C° 0 mm 1 mps 737 mmHg 86%
    07:00 +14°C° 0 mm 1 mps 737 mmHg 78%
    08:00 +16°C° 0 mm 1 mps 737 mmHg 70%
    09:00 +17°C° 0 mm 2 mps 737 mmHg 65%
    10:00 +18°C° 0 mm 3 mps 737 mmHg 61%
    11:00 +19°C° 0 mm 3 mps 737 mmHg 56%
    12:00 +18°C° 0.6 mm 3 mps 737 mmHg 64%
    13:00 +17°C° 0.6 mm 4 mps 737 mmHg 72%
    14:00 +17°C° 0.6 mm 4 mps 737 mmHg 80%
    15:00 +15°C° 0.4 mm 4 mps 737 mmHg 83%
    16:00 +14°C° 0.4 mm 3 mps 737 mmHg 86%
    17:00 +13°C° 0.4 mm 3 mps 737 mmHg 90%
    18:00 +14°C° 0.3 mm 2 mps 737 mmHg 92%
    19:00 +13°C° 0.3 mm 2 mps 737 mmHg 93%
    20:00 +12°C° 0.3 mm 2 mps 737 mmHg 95%
    21:00 +12°C° 0 mm 2 mps 737 mmHg 96%
    22:00 +10°C° 0 mm 2 mps 737 mmHg 96%
    23:00 +9°C° 0 mm 2 mps 737 mmHg 97%

    Day after tomorrow, 5 June, Friday

    Time Temperature Precipitation Wind Pressure Humidity
    00:00 +9°C° 0 mm 2 mps 737 mmHg 97%
    01:00 +9°C° 0 mm 2 mps 737 mmHg 97%
    02:00 +9°C° 0 mm 2 mps 737 mmHg 97%
    03:00 +9°C° 0 mm 2 mps 737 mmHg 97%
    04:00 +9°C° 0 mm 2 mps 737 mmHg 97%
    05:00 +9°C° 0 mm 2 mps 737 mmHg 97%
    06:00 +10°C° 0 mm 3 mps 737 mmHg 93%
    07:00 +12°C° 0 mm 3 mps 737 mmHg 89%
    08:00 +13°C° 0 mm 3 mps 737 mmHg 86%
    09:00 +16°C° 0.1 mm 3 mps 737 mmHg 76%
    10:00 +17°C° 0.1 mm 3 mps 737 mmHg 67%
    11:00 +19°C° 0.1 mm 3 mps 737 mmHg 57%
    12:00 +20°C° 0.1 mm 3 mps 737 mmHg 55%
    13:00 +20°C° 0.1 mm 3 mps 737 mmHg 53%
    14:00 +21°C° 0.1 mm 3 mps 737 mmHg 51%
    15:00 +21°C° 0 mm 3 mps 737 mmHg 54%
    16:00 +21°C° 0 mm 3 mps 737 mmHg 57%
    17:00 +20°C° 0 mm 3 mps 737 mmHg 59%
    18:00 +19°C° 0 mm 3 mps 737 mmHg 69%
    19:00 +17°C° 0 mm 3 mps 737 mmHg 79%
    20:00 +16°C° 0 mm 3 mps 737 mmHg 89%
    21:00 +14°C° 0 mm 3 mps 737 mmHg 92%
    22:00 +13°C° 0 mm 3 mps 737 mmHg 95%
    23:00 +13°C° 0 mm 3 mps 737 mmHg 98%

    6 June, Saturday

    Time Temperature Precipitation Wind Pressure Humidity
    00:00 +13°C° 0.4 mm 3 mps 737 mmHg 98%
    01:00 +13°C° 0.4 mm 3 mps 737 mmHg 97%
    02:00 +14°C° 0.4 mm 3 mps 737 mmHg 97%
    03:00 +14°C° 0.2 mm 3 mps 737 mmHg 97%
    04:00 +16°C° 0.2 mm 3 mps 737 mmHg 97%
    05:00 +16°C° 0.2 mm 3 mps 737 mmHg 97%
    06:00 +17°C° 0 mm 4 mps 737 mmHg 94%
    07:00 +18°C° 0 mm 4 mps 737 mmHg 91%
    08:00 +19°C° 0 mm 5 mps 737 mmHg 88%
    09:00 +19°C° 0.5 mm 5 mps 737 mmHg 90%
    10:00 +18°C° 0.5 mm 4 mps 738 mmHg 92%
    11:00 +18°C° 0.5 mm 4 mps 738 mmHg 93%
    12:00 +19°C° 0.6 mm 5 mps 739 mmHg 86%
    13:00 +20°C° 0.6 mm 5 mps 739 mmHg 79%
    14:00 +21°C° 0.6 mm 5 mps 740 mmHg 72%
    15:00 +21°C° 0 mm 5 mps 740 mmHg 66%
    16:00 +21°C° 0 mm 4 mps 740 mmHg 61%
    17:00 +22°C° 0 mm 4 mps 741 mmHg 55%
    18:00 +20°C° 0 mm 3 mps 741 mmHg 65%
    19:00 +18°C° 0 mm 3 mps 742 mmHg 74%
    20:00 +17°C° 0 mm 2 mps 743 mmHg 83%
    21:00 +16°C° 0 mm 2 mps 743 mmHg 87%
    22:00 +15°C° 0 mm 2 mps 744 mmHg 91%
    23:00 +14°C° 0 mm 2 mps 745 mmHg 96%

    7 June, Sunday

    Time Temperature Precipitation Wind Pressure Humidity
    00:00 +13°C° 0 mm 1 mps 745 mmHg 95%
    01:00 +13°C° 0 mm 1 mps 746 mmHg 95%
    02:00 +12°C° 0 mm 1 mps 746 mmHg 95%
    03:00 +12°C° 0 mm 1 mps 746 mmHg 94%
    04:00 +13°C° 0 mm 1 mps 747 mmHg 92%
    05:00 +13°C° 0 mm 1 mps 747 mmHg 90%
    06:00 +15°C° 0 mm 1 mps 747 mmHg 82%
    07:00 +18°C° 0 mm 1 mps 747 mmHg 74%
    08:00 +19°C° 0 mm 2 mps 747 mmHg 65%
    09:00 +20°C° 0 mm 2 mps 748 mmHg 61%
    10:00 +23°C° 0 mm 2 mps 748 mmHg 56%
    11:00 +24°C° 0 mm 2 mps 748 mmHg 51%
    12:00 +25°C° 0 mm 2 mps 748 mmHg 52%
    13:00 +25°C° 0 mm 2 mps 748 mmHg 52%
    14:00 +25°C° 0 mm 2 mps 747 mmHg 52%
    15:00 +25°C° 0 mm 2 mps 747 mmHg 55%
    16:00 +25°C° 0 mm 2 mps 747 mmHg 58%
    17:00 +25°C° 0 mm 3 mps 746 mmHg 61%
    18:00 +24°C° 0.2 mm 2 mps 746 mmHg 69%
    19:00 +21°C° 0.2 mm 2 mps 746 mmHg 77%
    20:00 +19°C° 0.2 mm 2 mps 746 mmHg 85%
    21:00 +19°C° 0.7 mm 2 mps 746 mmHg 88%
    22:00 +18°C° 0.7 mm 2 mps 746 mmHg 92%
    23:00 +18°C° 0.7 mm 2 mps 746 mmHg 95%

    8 June, Monday

    Time Temperature Precipitation Wind Pressure Humidity
    00:00 +18°C° 0.2 mm 3 mps 746 mmHg 95%
    01:00 +17°C° 0.2 mm 3 mps 745 mmHg 94%
    02:00 +17°C° 0.2 mm 3 mps 745 mmHg 94%
    03:00 +17°C° 0.2 mm 3 mps 745 mmHg 94%
    04:00 +17°C° 0.2 mm 3 mps 745 mmHg 95%
    05:00 +16°C° 0.2 mm 3 mps 744 mmHg 95%
    06:00 +17°C° 0.6 mm 4 mps 744 mmHg 94%
    07:00 +18°C° 0.6 mm 4 mps 744 mmHg 92%
    08:00 +19°C° 0.6 mm 4 mps 745 mmHg 91%
    09:00 +21°C° 0 mm 4 mps 745 mmHg 86%
    10:00 +22°C° 0 mm 4 mps 745 mmHg 81%
    11:00 +23°C° 0 mm 4 mps 745 mmHg 76%
    12:00 +23°C° 1 mm 4 mps 745 mmHg 77%
    13:00 +25°C° 1 mm 4 mps 745 mmHg 78%
    14:00 +25°C° 1 mm 4 mps 744 mmHg 78%
    15:00 +25°C° 0.4 mm 4 mps 744 mmHg 77%
    16:00 +25°C° 0.4 mm 4 mps 744 mmHg 76%
    17:00 +25°C° 0.4 mm 3 mps 744 mmHg 75%
    18:00 +24°C° 0.4 mm 3 mps 744 mmHg 80%
    19:00 +22°C° 0.4 mm 3 mps 745 mmHg 85%
    20:00 +21°C° 0.4 mm 2 mps 745 mmHg 89%
    21:00 +20°C° 0.2 mm 2 mps 745 mmHg 91%
    22:00 +19°C° 0.2 mm 2 mps 745 mmHg 93%
    23:00 +19°C° 0.2 mm 2 mps 746 mmHg 95%
    Show more